Volver al catálogo

STARLINK-3597

ActivoComunicacionesVLEO
NORAD 51898·PAYLOAD·🇺🇸 United States

Lanzado Mar 3, 2022 desde Cape Canaveral Space Force Station

Loading…

Próximos Pases (próximas 24 horas)

TLE

ActualizadoSource: CelesTrak SupGP

Época: Sep 15, 2026, 01:53 UTC

1 51898C 22022AY  26258.07895833 -.00060569  00000+0 -17883-2 0  2589
2 51898  53.1570 212.7283 0001177  92.3236 185.6184 15.34442554    11

Sigue STARLINK-3597 en tiempo real con AllMySat

Download on the App Store